| time (UTC) | temp F | wind direction | speed MPH | gust MPH | rain 1hr in | rain 24hr in | rain mn in | humidity % | barometer mb |
| 20260504223624 | 75 | 89 | 0.0 | 2.0 | 0.00 | 0.00 | 0.00 | 30 | 1014.1 |
| 20260504223120 | 75 | 68 | 0.0 | 2.0 | 0.00 | 0.00 | 0.00 | 29 | 1014.3 |
| 20260504222617 | 76 | 91 | 1.0 | 3.0 | 0.00 | 0.00 | 0.00 | 29 | 1014.3 |
| 20260504222114 | 76 | 148 | 1.0 | 2.0 | 0.00 | 0.00 | 0.00 | 29 | 1014.0 |
| 20260504221611 | 77 | 130 | 0.0 | 2.0 | 0.00 | 0.00 | 0.00 | 29 | 1014.0 |
| 20260504221108 | 77 | 252 | 1.0 | 2.0 | 0.00 | 0.00 | 0.00 | 28 | 1014.3 |
| 20260504220604 | 77 | 69 | 1.0 | 4.0 | 0.00 | 0.00 | 0.00 | 30 | 1014.3 |
| 20260504215558 | 78 | 235 | 2.0 | 3.0 | 0.00 | 0.00 | 0.00 | 29 | 1014.1 |
| 20260504215056 | 79 | 163 | 1.0 | 2.0 | 0.00 | 0.00 | 0.00 | 30 | 1014.1 |
| 20260504214551 | 79 | 76 | 0.0 | 3.0 | 0.00 | 0.00 | 0.00 | 28 | 1014.0 |
| 20260504214048 | 79 | 281 | 1.0 | 5.0 | 0.00 | 0.00 | 0.00 | 29 | 1014.1 |
| 20260504213544 | 79 | 26 | 1.0 | 5.0 | 0.00 | 0.00 | 0.00 | 28 | 1014.0 |
| 20260504213041 | 80 | 106 | 2.0 | 3.0 | 0.00 | 0.00 | 0.00 | 29 | 1014.1 |
| 20260504212537 | 80 | 230 | 2.0 | 3.0 | 0.00 | 0.00 | 0.00 | 29 | 1014.1 |
| 20260504212035 | 80 | 37 | 0.0 | 3.0 | 0.00 | 0.00 | 0.00 | 31 | 1014.1 |
| 20260504211532 | 80 | 61 | 1.0 | 5.0 | 0.00 | 0.00 | 0.00 | 31 | 1014.3 |
| 20260504211028 | 80 | 252 | 1.0 | 4.0 | 0.00 | 0.00 | 0.00 | 29 | 1014.1 |
| 20260504210525 | 80 | 250 | 0.0 | 3.0 | 0.00 | 0.00 | 0.00 | 28 | 1014.4 |
| 20260504210022 | 81 | 333 | 0.0 | 3.0 | 0.00 | 0.00 | 0.00 | 27 | 1014.1 |
| 20260504205520 | 80 | 282 | 0.0 | 2.0 | 0.00 | 0.00 | 0.00 | 30 | 1014.4 |
| 20260504205018 | 80 | 15 | 0.0 | 3.0 | 0.00 | 0.00 | 0.00 | 28 | 1014.4 |
| 20260504204515 | 81 | 143 | 2.0 | 3.0 | 0.00 | 0.00 | 0.00 | 29 | 1014.3 |
| 20260504204014 | 80 | 66 | 3.0 | 3.0 | 0.00 | 0.00 | 0.00 | 29 | 1014.6 |
| 20260504203512 | 80 | 180 | 0.0 | 4.0 | 0.00 | 0.00 | 0.00 | 28 | 1014.6 |
| 20260504203009 | 80 | 46 | 1.0 | 5.0 | 0.00 | 0.00 | 0.00 | 29 | 1014.6 |
| 20260504202505 | 80 | 26 | 3.0 | 4.0 | 0.00 | 0.00 | 0.00 | 27 | 1014.6 |
| 20260504202001 | 80 | 129 | 2.0 | 3.0 | 0.00 | 0.00 | 0.00 | 28 | 1014.7 |
| 20260504201459 | 82 | 13 | 1.0 | 3.0 | 0.00 | 0.00 | 0.00 | 27 | 1014.8 |
| 20260504200956 | 81 | 227 | 2.0 | 2.0 | 0.00 | 0.00 | 0.00 | 28 | 1014.7 |
| 20260504200453 | 80 | 118 | 0.0 | 4.0 | 0.00 | 0.00 | 0.00 | 29 | 1014.9 |
| 20260504195949 | 80 | 101 | 3.0 | 4.0 | 0.00 | 0.00 | 0.00 | 28 | 1014.8 |
| 20260504195445 | 81 | 276 | 2.0 | 7.0 | 0.00 | 0.00 | 0.00 | 28 | 1015.0 |
| 20260504194942 | 81 | 85 | 2.0 | 4.0 | 0.00 | 0.00 | 0.00 | 28 | 1015.2 |
| 20260504194438 | 82 | 14 | 1.0 | 2.0 | 0.00 | 0.00 | 0.00 | 28 | 1015.0 |
| 20260504193934 | 81 | 235 | 2.0 | 3.0 | 0.00 | 0.00 | 0.00 | 27 | 1015.0 |
| 20260504193432 | 81 | 96 | 3.0 | 4.0 | 0.00 | 0.00 | 0.00 | 28 | 1015.2 |
| 20260504192930 | 81 | 126 | 2.0 | 4.0 | 0.00 | 0.00 | 0.00 | 28 | 1015.2 |
| 20260504192427 | 80 | 312 | 0.0 | 2.0 | 0.00 | 0.00 | 0.00 | 28 | 1015.3 |
| 20260504191926 | 82 | 76 | 0.0 | 4.0 | 0.00 | 0.00 | 0.00 | 27 | 1015.5 |
| 20260504191424 | 81 | 196 | 1.0 | 4.0 | 0.00 | 0.00 | 0.00 | 29 | 1015.5 |
| 20260504190919 | 81 | 225 | 1.0 | 2.0 | 0.00 | 0.00 | 0.00 | 27 | 1015.5 |
| 20260504190415 | 81 | 168 | 2.0 | 2.0 | 0.00 | 0.00 | 0.00 | 28 | 1015.4 |
| 20260504185912 | 81 | 187 | 1.0 | 2.0 | 0.00 | 0.00 | 0.00 | 27 | 1015.6 |
| 20260504185409 | 81 | 213 | 1.0 | 3.0 | 0.00 | 0.00 | 0.00 | 27 | 1015.6 |
| 20260504184904 | 79 | 62 | 0.0 | 3.0 | 0.00 | 0.00 | 0.00 | 29 | 1015.7 |
| 20260504184401 | 80 | 73 | 0.0 | 5.0 | 0.00 | 0.00 | 0.00 | 29 | 1015.8 |
| 20260504183856 | 80 | 302 | 0.0 | 2.0 | 0.00 | 0.00 | 0.00 | 29 | 1015.9 |
| 20260504183354 | 79 | 73 | 0.0 | 2.0 | 0.00 | 0.00 | 0.00 | 31 | 1015.9 |
| 20260504182852 | 79 | 0 | 0.0 | 2.0 | 0.00 | 0.00 | 0.00 | 30 | 1015.9 |
| 20260504182349 | 77 | 329 | 0.0 | 2.0 | 0.00 | 0.00 | 0.00 | 32 | 1016.0 |
| 20260504181845 | 76 | 12 | 2.0 | 2.0 | 0.00 | 0.00 | 0.00 | 32 | 1015.9 |
| 20260504181343 | 76 | 61 | 2.0 | 4.0 | 0.00 | 0.00 | 0.00 | 32 | 1016.1 |
| 20260504180842 | 77 | 76 | 2.0 | 3.0 | 0.00 | 0.00 | 0.00 | 32 | 1016.1 |
| 20260504180340 | 76 | 259 | 1.0 | 2.0 | 0.00 | 0.00 | 0.00 | 36 | 1016.1 |
| 20260504175838 | 76 | 293 | 2.0 | 3.0 | 0.00 | 0.00 | 0.00 | 35 | 1016.1 |
| 20260504175334 | 75 | 27 | 1.0 | 2.0 | 0.00 | 0.00 | 0.00 | 35 | 1016.1 |
| 20260504174832 | 74 | 95 | 0.0 | 6.0 | 0.00 | 0.00 | 0.00 | 35 | 1016.1 |
| 20260504174330 | 73 | 26 | 2.0 | 2.0 | 0.00 | 0.00 | 0.00 | 36 | 1016.1 |
| 20260504173826 | 74 | 115 | 3.0 | 3.0 | 0.00 | 0.00 | 0.00 | 34 | 1016.2 |
| 20260504173323 | 73 | 200 | 1.0 | 2.0 | 0.00 | 0.00 | 0.00 | 39 | 1016.1 |
| 20260504172820 | 73 | 80 | 2.0 | 4.0 | 0.00 | 0.00 | 0.00 | 36 | 1016.1 |
| 20260504172317 | 72 | 93 | 0.0 | 3.0 | 0.00 | 0.00 | 0.00 | 36 | 1016.3 |
| 20260504171812 | 73 | 154 | 0.0 | 4.0 | 0.00 | 0.00 | 0.00 | 36 | 1016.5 |
| 20260504171310 | 72 | 66 | 1.0 | 2.0 | 0.00 | 0.00 | 0.00 | 36 | 1016.7 |
| 20260504170807 | 71 | 11 | 1.0 | 2.0 | 0.00 | 0.00 | 0.00 | 37 | 1016.8 |
| 20260504170304 | 71 | 22 | 1.0 | 2.0 | 0.00 | 0.00 | 0.00 | 37 | 1017.0 |
| 20260504160222 | 69 | 137 | 2.0 | 2.0 | 0.00 | 0.00 | 0.00 | 36 | 1018.0 |
| 20260504150653 | 66 | 63 | 1.0 | 3.0 | 0.00 | 0.00 | 0.00 | 41 | 1018.2 |
| 20260504150150 | 65 | 89 | 0.0 | 1.0 | 0.00 | 0.00 | 0.00 | 43 | 1018.3 |
| 20260504141119 | 62 | 114 | 2.0 | 3.0 | 0.00 | 0.00 | 0.00 | 52 | 1018.3 |
| 20260504140616 | 61 | 86 | 2.0 | 4.0 | 0.00 | 0.00 | 0.00 | 54 | 1018.0 |
| 20260504140111 | 61 | 76 | 2.0 | 2.0 | 0.00 | 0.00 | 0.00 | 54 | 1018.0 |
| 20260504130539 | 53 | 101 | 2.0 | 3.0 | 0.00 | 0.00 | 0.00 | 78 | 1018.0 |
| 20260504110427 | 43 | 72 | 1.0 | 2.0 | 0.00 | 0.00 | 0.00 | 88 | 1017.6 |
| 20260504100344 | 44 | 95 | 1.0 | 2.0 | 0.00 | 0.00 | 0.00 | 86 | 1017.1 |
| 20260504081737 | 46 | 69 | 2.0 | 2.0 | 0.00 | 0.00 | 0.00 | 85 | 1017.5 |
| 20260504081233 | 46 | 89 | 2.0 | 2.0 | 0.00 | 0.00 | 0.00 | 84 | 1017.3 |
| 20260504080730 | 46 | 94 | 2.0 | 2.0 | 0.00 | 0.00 | 0.00 | 85 | 1017.2 |
| 20260504080226 | 46 | 75 | 2.0 | 2.0 | 0.00 | 0.00 | 0.00 | 85 | 1017.1 |
| 20260504070154 | 46 | 92 | 2.0 | 2.0 | 0.00 | 0.00 | 0.00 | 83 | 1017.3 |
| 20260504060115 | 49 | 78 | 2.0 | 3.0 | 0.00 | 0.00 | 0.00 | 78 | 1017.5 |
| 20260504050543 | 49 | 101 | 2.0 | 3.0 | 0.00 | 0.00 | 0.00 | 77 | 1017.4 |
| 20260504045536 | 49 | 87 | 2.0 | 2.0 | 0.00 | 0.00 | 0.00 | 76 | 1017.4 |
| 20260504045032 | 49 | 95 | 2.0 | 2.0 | 0.00 | 0.00 | 0.00 | 75 | 1017.2 |
| 20260504044530 | 49 | 93 | 2.0 | 3.0 | 0.00 | 0.00 | 0.00 | 75 | 1017.4 |
| 20260504044026 | 50 | 92 | 2.0 | 2.0 | 0.00 | 0.00 | 0.00 | 74 | 1017.2 |
| 20260504043523 | 50 | 88 | 2.0 | 3.0 | 0.00 | 0.00 | 0.00 | 74 | 1017.2 |
| 20260504043021 | 50 | 78 | 2.0 | 3.0 | 0.00 | 0.00 | 0.00 | 74 | 1017.3 |
| 20260504042517 | 50 | 85 | 2.0 | 3.0 | 0.00 | 0.00 | 0.00 | 74 | 1017.4 |
| 20260504042015 | 50 | 85 | 2.0 | 2.0 | 0.00 | 0.00 | 0.00 | 73 | 1017.2 |
| 20260504041510 | 50 | 87 | 2.0 | 2.0 | 0.00 | 0.00 | 0.00 | 73 | 1017.3 |
| 20260504041006 | 50 | 86 | 2.0 | 2.0 | 0.00 | 0.00 | 0.00 | 72 | 1017.3 |
| 20260504040504 | 50 | 71 | 2.0 | 2.0 | 0.00 | 0.00 | 0.00 | 72 | 1017.4 |
| 20260504040000 | 50 | 76 | 2.0 | 3.0 | 0.00 | 0.00 | 0.00 | 72 | 1017.5 |
| 20260504035458 | 51 | 78 | 2.0 | 3.0 | 0.00 | 0.00 | 0.00 | 71 | 1017.5 |
| 20260504034954 | 51 | 87 | 2.0 | 2.0 | 0.00 | 0.00 | 0.00 | 71 | 1017.6 |
| 20260504034452 | 51 | 66 | 2.0 | 2.0 | 0.00 | 0.00 | 0.00 | 71 | 1017.5 |
| 20260504033948 | 51 | 76 | 2.0 | 2.0 | 0.00 | 0.00 | 0.00 | 71 | 1017.5 |
| 20260504033446 | 51 | 93 | 2.0 | 3.0 | 0.00 | 0.00 | 0.00 | 71 | 1017.4 |
| 20260504032943 | 51 | 66 | 2.0 | 2.0 | 0.00 | 0.00 | 0.00 | 70 | 1017.5 |
| 20260504032440 | 51 | 84 | 1.0 | 2.0 | 0.00 | 0.00 | 0.00 | 70 | 1017.5 |
| 20260504031937 | 52 | 86 | 2.0 | 2.0 | 0.00 | 0.00 | 0.00 | 69 | 1017.6 |
| 20260504031434 | 52 | 97 | 2.0 | 2.0 | 0.00 | 0.00 | 0.00 | 68 | 1017.5 |
| 20260504030930 | 52 | 88 | 2.0 | 3.0 | 0.00 | 0.00 | 0.00 | 68 | 1017.8 |
| 20260504030427 | 52 | 89 | 2.0 | 2.0 | 0.00 | 0.00 | 0.00 | 67 | 1017.8 |
| 20260504025923 | 52 | 78 | 2.0 | 2.0 | 0.00 | 0.00 | 0.00 | 67 | 1017.6 |
| 20260504025420 | 53 | 86 | 2.0 | 2.0 | 0.00 | 0.00 | 0.00 | 66 | 1017.5 |
| 20260504024918 | 53 | 87 | 3.0 | 3.0 | 0.00 | 0.00 | 0.00 | 65 | 1017.4 |
| 20260504024415 | 53 | 87 | 2.0 | 2.0 | 0.00 | 0.00 | 0.00 | 67 | 1017.6 |
| 20260504023912 | 53 | 84 | 2.0 | 2.0 | 0.00 | 0.00 | 0.00 | 65 | 1017.4 |
| 20260504023408 | 53 | 88 | 2.0 | 2.0 | 0.00 | 0.00 | 0.00 | 65 | 1017.4 |
| 20260504022903 | 53 | 82 | 2.0 | 2.0 | 0.00 | 0.00 | 0.00 | 64 | 1017.5 |
| 20260504022400 | 54 | 88 | 2.0 | 2.0 | 0.00 | 0.00 | 0.00 | 63 | 1017.3 |
| 20260504021856 | 54 | 85 | 2.0 | 2.0 | 0.00 | 0.00 | 0.00 | 63 | 1017.1 |
| 20260504021354 | 54 | 81 | 2.0 | 2.0 | 0.00 | 0.00 | 0.00 | 63 | 1017.1 |
| 20260504020851 | 54 | 84 | 2.0 | 2.0 | 0.00 | 0.00 | 0.00 | 62 | 1017.0 |
| 20260504020348 | 55 | 85 | 2.0 | 3.0 | 0.00 | 0.00 | 0.00 | 62 | 1017.2 |
| 20260504015844 | 55 | 83 | 2.0 | 2.0 | 0.00 | 0.00 | 0.00 | 63 | 1017.1 |
| 20260504015340 | 55 | 102 | 2.0 | 2.0 | 0.00 | 0.00 | 0.00 | 62 | 1016.8 |
| 20260504014836 | 55 | 89 | 2.0 | 2.0 | 0.00 | 0.00 | 0.00 | 62 | 1016.8 |
| 20260504014332 | 55 | 79 | 2.0 | 2.0 | 0.00 | 0.00 | 0.00 | 62 | 1016.9 |
| 20260504013830 | 56 | 88 | 2.0 | 2.0 | 0.00 | 0.00 | 0.00 | 61 | 1016.7 |
| 20260504013328 | 56 | 89 | 2.0 | 2.0 | 0.00 | 0.00 | 0.00 | 61 | 1016.9 |
| 20260504012824 | 56 | 81 | 2.0 | 2.0 | 0.00 | 0.00 | 0.00 | 63 | 1016.7 |
| 20260504012322 | 56 | 88 | 2.0 | 2.0 | 0.00 | 0.00 | 0.00 | 63 | 1016.6 |
| 20260504011819 | 56 | 95 | 2.0 | 2.0 | 0.00 | 0.00 | 0.00 | 59 | 1016.7 |
| 20260504011316 | 57 | 98 | 2.0 | 2.0 | 0.00 | 0.00 | 0.00 | 61 | 1016.4 |
| 20260504010811 | 57 | 89 | 1.0 | 2.0 | 0.00 | 0.00 | 0.00 | 58 | 1016.6 |
| 20260504010307 | 57 | 98 | 2.0 | 2.0 | 0.00 | 0.00 | 0.00 | 56 | 1016.5 |
| 20260504005804 | 57 | 80 | 1.0 | 2.0 | 0.00 | 0.00 | 0.00 | 56 | 1016.4 |
| 20260504005301 | 58 | 93 | 2.0 | 3.0 | 0.00 | 0.00 | 0.00 | 51 | 1016.4 |
| 20260504004759 | 58 | 84 | 2.0 | 2.0 | 0.00 | 0.00 | 0.00 | 55 | 1016.3 |
| 20260504004256 | 59 | 76 | 2.0 | 2.0 | 0.00 | 0.00 | 0.00 | 54 | 1016.3 |
| 20260504003752 | 59 | 85 | 1.0 | 2.0 | 0.00 | 0.00 | 0.00 | 57 | 1016.2 |
| 20260504003250 | 59 | 92 | 2.0 | 2.0 | 0.00 | 0.00 | 0.00 | 50 | 1016.2 |
| 20260504002746 | 60 | 81 | 2.0 | 2.0 | 0.00 | 0.00 | 0.00 | 50 | 1016.5 |
| 20260504002243 | 60 | 94 | 1.0 | 2.0 | 0.00 | 0.00 | 0.00 | 47 | 1016.3 |
| 20260504001741 | 61 | 87 | 1.0 | 2.0 | 0.00 | 0.00 | 0.00 | 47 | 1016.2 |
| 20260504001237 | 61 | 98 | 2.0 | 2.0 | 0.00 | 0.00 | 0.00 | 44 | 1016.2 |
| 20260504000734 | 62 | 87 | 1.0 | 2.0 | 0.00 | 0.00 | 0.00 | 42 | 1016.1 |
| 20260504000233 | 62 | 92 | 0.0 | 2.0 | 0.00 | 0.00 | 0.00 | 39 | 1016.0 |
| 20260503235730 | 63 | 82 | 1.0 | 2.0 | 0.00 | 0.00 | 0.00 | 41 | 1015.9 |
| 20260503235226 | 63 | 95 | 1.0 | 2.0 | 0.00 | 0.00 | 0.00 | 40 | 1016.1 |
| 20260503234724 | 64 | 73 | 1.0 | 2.0 | 0.00 | 0.00 | 0.00 | 39 | 1016.0 |
| 20260503234222 | 64 | 106 | 2.0 | 2.0 | 0.00 | 0.00 | 0.00 | 40 | 1016.0 |
| 20260503233719 | 65 | 75 | 0.0 | 2.0 | 0.00 | 0.00 | 0.00 | 38 | 1015.8 |
| 20260503233214 | 65 | 86 | 2.0 | 2.0 | 0.00 | 0.00 | 0.00 | 33 | 1016.0 |
| 20260503232711 | 65 | 85 | 2.0 | 2.0 | 0.00 | 0.00 | 0.00 | 34 | 1015.8 |
| 20260503232208 | 66 | 87 | 1.0 | 2.0 | 0.00 | 0.00 | 0.00 | 32 | 1015.9 |
| 20260503231707 | 66 | 89 | 1.0 | 2.0 | 0.00 | 0.00 | 0.00 | 29 | 1016.0 |
| 20260503231203 | 66 | 88 | 2.0 | 2.0 | 0.00 | 0.00 | 0.00 | 30 | 1016.0 |
| 20260503230659 | 66 | 67 | 2.0 | 2.0 | 0.00 | 0.00 | 0.00 | 31 | 1015.9 |
| 20260503230157 | 66 | 87 | 2.0 | 3.0 | 0.00 | 0.00 | 0.00 | 29 | 1015.9 |
| 20260503225654 | 67 | 96 | 2.0 | 3.0 | 0.00 | 0.00 | 0.00 | 29 | 1016.0 |
| 20260503225153 | 67 | 115 | 2.0 | 2.0 | 0.00 | 0.00 | 0.00 | 31 | 1016.0 |
| 20260503224651 | 67 | 101 | 2.0 | 4.0 | 0.00 | 0.00 | 0.00 | 30 | 1016.2 |
| 20260503224149 | 67 | 103 | 1.0 | 3.0 | 0.00 | 0.00 | 0.00 | 29 | 1016.0 |